When you browse on this site, cookies collect data to enhance your experience and personalize the content and advertising you see.
Visit our Privacy Policy to learn more. By continuing to use the site, you agree to this use of cookies and data.
  • In Hungary
  • List of Countries
  • For 7 days
  • Water Temperature
  • Weather Map
  • News
  • Weather Widgets
  • user-avatar
    Login

    Hourly Weather Elsdorf

    Today, 6 December, Friday

    Time Temperature Precipitation Wind Pressure Humidity
    00:00 0°C° 0 mm 3 mps 757 mmHg 67%
    01:00 0°C° 0 mm 4 mps 756 mmHg 66%
    02:00 0°C° 0 mm 4 mps 755 mmHg 65%
    03:00 0°C° 0 mm 4 mps 755 mmHg 64%
    04:00 +1°C° 0.1 mm 5 mps 754 mmHg 65%
    05:00 +2°C° 0.1 mm 5 mps 754 mmHg 66%
    06:00 +2°C° 0.1 mm 5 mps 754 mmHg 67%
    07:00 +2°C° 0.9 mm 5 mps 754 mmHg 74%
    08:00 +3°C° 0.9 mm 5 mps 753 mmHg 81%
    09:00 +3°C° 0.9 mm 6 mps 753 mmHg 87%
    10:00 +3°C° 0.9 mm 5 mps 753 mmHg 87%
    11:00 +3°C° 0.9 mm 5 mps 752 mmHg 88%
    12:00 +3°C° 0.9 mm 5 mps 752 mmHg 88%
    13:00 +4°C° 0.3 mm 6 mps 751 mmHg 87%
    14:00 +4°C° 0.3 mm 6 mps 750 mmHg 87%
    15:00 +4°C° 0.3 mm 6 mps 750 mmHg 86%
    16:00 +4°C° 1.4 mm 7 mps 749 mmHg 87%
    17:00 +5°C° 1.4 mm 7 mps 749 mmHg 87%
    18:00 +5°C° 1.4 mm 7 mps 749 mmHg 88%
    19:00 +5°C° 0.5 mm 7 mps 748 mmHg 87%
    20:00 +6°C° 0.5 mm 7 mps 748 mmHg 87%
    21:00 +6°C° 0.5 mm 8 mps 747 mmHg 86%
    22:00 +6°C° 0.2 mm 8 mps 747 mmHg 85%
    23:00 +6°C° 0.2 mm 8 mps 748 mmHg 84%

    Tomorrow, 7 December, Saturday

    Time Temperature Precipitation Wind Pressure Humidity
    00:00 +6°C° 0.2 mm 8 mps 748 mmHg 83%
    01:00 +6°C° 0.1 mm 8 mps 748 mmHg 83%
    02:00 +6°C° 0.1 mm 8 mps 749 mmHg 84%
    03:00 +6°C° 0.1 mm 7 mps 750 mmHg 85%
    04:00 +6°C° 0 mm 7 mps 750 mmHg 85%
    05:00 +7°C° 0 mm 6 mps 751 mmHg 86%
    06:00 +5°C° 0 mm 6 mps 752 mmHg 86%
    07:00 +5°C° 0 mm 6 mps 752 mmHg 87%
    08:00 +5°C° 0 mm 6 mps 752 mmHg 87%
    09:00 +7°C° 0 mm 5 mps 753 mmHg 87%
    10:00 +7°C° 0 mm 5 mps 753 mmHg 86%
    11:00 +7°C° 0 mm 5 mps 753 mmHg 85%
    12:00 +7°C° 0 mm 5 mps 753 mmHg 85%
    13:00 +7°C° 0 mm 5 mps 753 mmHg 84%
    14:00 +7°C° 0 mm 5 mps 753 mmHg 84%
    15:00 +7°C° 0 mm 5 mps 753 mmHg 84%
    16:00 +7°C° 0 mm 5 mps 754 mmHg 84%
    17:00 +6°C° 0 mm 4 mps 754 mmHg 85%
    18:00 +6°C° 0 mm 4 mps 754 mmHg 86%
    19:00 +6°C° 0 mm 4 mps 754 mmHg 86%
    20:00 +6°C° 0 mm 4 mps 754 mmHg 87%
    21:00 +6°C° 0 mm 4 mps 754 mmHg 88%
    22:00 +5°C° 0 mm 4 mps 754 mmHg 88%
    23:00 +5°C° 0 mm 4 mps 754 mmHg 88%

    Day after tomorrow, 8 December, Sunday

    Time Temperature Precipitation Wind Pressure Humidity
    00:00 +5°C° 0 mm 4 mps 753 mmHg 88%
    01:00 +5°C° 0 mm 4 mps 752 mmHg 86%
    02:00 +5°C° 0 mm 4 mps 752 mmHg 85%
    03:00 +5°C° 0 mm 5 mps 751 mmHg 83%
    04:00 +6°C° 0 mm 5 mps 750 mmHg 82%
    05:00 +6°C° 0 mm 5 mps 750 mmHg 82%
    06:00 +5°C° 0 mm 6 mps 749 mmHg 81%
    07:00 +5°C° 0.2 mm 7 mps 748 mmHg 81%
    08:00 +6°C° 0.2 mm 7 mps 747 mmHg 81%
    09:00 +6°C° 0.2 mm 8 mps 746 mmHg 81%
    10:00 +7°C° 0.2 mm 8 mps 746 mmHg 81%
    11:00 +9°C° 0.2 mm 8 mps 745 mmHg 81%
    12:00 +10°C° 0.2 mm 8 mps 745 mmHg 81%
    13:00 +9°C° 0.1 mm 8 mps 744 mmHg 80%
    14:00 +9°C° 0.1 mm 7 mps 744 mmHg 78%
    15:00 +9°C° 0.1 mm 7 mps 744 mmHg 77%
    16:00 +8°C° 0.1 mm 6 mps 744 mmHg 78%
    17:00 +8°C° 0.1 mm 6 mps 744 mmHg 79%
    18:00 +7°C° 0.1 mm 6 mps 744 mmHg 80%
    19:00 +7°C° 0.6 mm 6 mps 744 mmHg 81%
    20:00 +5°C° 0.6 mm 7 mps 744 mmHg 82%
    21:00 +5°C° 0.6 mm 7 mps 744 mmHg 83%
    22:00 +5°C° 0 mm 7 mps 743 mmHg 81%
    23:00 +4°C° 0 mm 7 mps 743 mmHg 79%

    9 December, Monday

    Time Temperature Precipitation Wind Pressure Humidity
    00:00 +4°C° 0 mm 8 mps 743 mmHg 78%
    01:00 +4°C° 0 mm 8 mps 742 mmHg 78%
    02:00 +3°C° 0 mm 9 mps 741 mmHg 78%
    03:00 +3°C° 0 mm 9 mps 740 mmHg 78%
    04:00 +3°C° 0.7 mm 9 mps 740 mmHg 80%
    05:00 +3°C° 0.7 mm 9 mps 739 mmHg 82%
    06:00 +3°C° 0.7 mm 9 mps 739 mmHg 84%
    07:00 +4°C° 0.4 mm 8 mps 739 mmHg 84%
    08:00 +4°C° 0.4 mm 8 mps 739 mmHg 85%
    09:00 +4°C° 0.4 mm 7 mps 739 mmHg 85%
    10:00 +4°C° 0.3 mm 8 mps 739 mmHg 85%
    11:00 +4°C° 0.3 mm 8 mps 739 mmHg 85%
    12:00 +4°C° 0.3 mm 8 mps 739 mmHg 84%
    13:00 +5°C° 0.3 mm 8 mps 740 mmHg 82%
    14:00 +5°C° 0.3 mm 8 mps 741 mmHg 79%
    15:00 +6°C° 0.3 mm 7 mps 742 mmHg 77%
    16:00 +5°C° 0.2 mm 8 mps 743 mmHg 77%
    17:00 +5°C° 0.2 mm 8 mps 745 mmHg 77%
    18:00 +4°C° 0.2 mm 8 mps 746 mmHg 78%
    19:00 +4°C° 0.1 mm 8 mps 748 mmHg 76%
    20:00 +2°C° 0.1 mm 8 mps 749 mmHg 74%
    21:00 +3°C° 0.1 mm 7 mps 750 mmHg 72%
    22:00 +3°C° 0.1 mm 7 mps 751 mmHg 72%
    23:00 +3°C° 0.1 mm 7 mps 752 mmHg 72%

    10 December, Tuesday

    Time Temperature Precipitation Wind Pressure Humidity
    00:00 +3°C° 0.1 mm 7 mps 753 mmHg 72%
    01:00 +2°C° 0 mm 6 mps 754 mmHg 72%
    02:00 +2°C° 0 mm 6 mps 754 mmHg 72%
    03:00 +2°C° 0 mm 6 mps 755 mmHg 72%
    04:00 +2°C° 0 mm 5 mps 756 mmHg 73%
    05:00 +1°C° 0 mm 5 mps 757 mmHg 75%
    06:00 +1°C° 0 mm 4 mps 757 mmHg 76%
    07:00 +1°C° 0 mm 4 mps 758 mmHg 78%
    08:00 +1°C° 0 mm 4 mps 758 mmHg 79%
    09:00 +1°C° 0 mm 4 mps 758 mmHg 81%
    10:00 +3°C° 0 mm 4 mps 758 mmHg 77%
    11:00 +4°C° 0 mm 4 mps 758 mmHg 74%
    12:00 +3°C° 0 mm 5 mps 757 mmHg 71%
    13:00 +3°C° 0 mm 5 mps 756 mmHg 70%
    14:00 +4°C° 0 mm 4 mps 756 mmHg 69%
    15:00 +3°C° 0 mm 4 mps 755 mmHg 68%
    16:00 +3°C° 0 mm 5 mps 754 mmHg 70%
    17:00 +3°C° 0 mm 5 mps 753 mmHg 73%
    18:00 +3°C° 0 mm 6 mps 752 mmHg 75%
    19:00 +3°C° 0.5 mm 6 mps 751 mmHg 78%
    20:00 +4°C° 0.5 mm 6 mps 751 mmHg 81%
    21:00 +5°C° 0.5 mm 7 mps 750 mmHg 83%
    22:00 +5°C° 0.2 mm 7 mps 749 mmHg 82%
    23:00 +6°C° 0.2 mm 7 mps 748 mmHg 80%

    11 December, Wednesday

    Time Temperature Precipitation Wind Pressure Humidity
    00:00 +6°C° 0.2 mm 8 mps 747 mmHg 79%
    01:00 +6°C° 0.9 mm 8 mps 746 mmHg 81%
    02:00 +6°C° 0.9 mm 7 mps 746 mmHg 84%
    03:00 +6°C° 0.9 mm 7 mps 745 mmHg 87%
    04:00 +6°C° 1 mm 7 mps 746 mmHg 87%
    05:00 +5°C° 1 mm 6 mps 746 mmHg 87%
    06:00 +5°C° 1 mm 5 mps 746 mmHg 87%
    07:00 +5°C° 0.1 mm 5 mps 747 mmHg 85%
    08:00 +5°C° 0.1 mm 5 mps 747 mmHg 83%
    09:00 +3°C° 0.1 mm 5 mps 748 mmHg 81%
    10:00 +5°C° 0 mm 5 mps 748 mmHg 77%
    11:00 +4°C° 0 mm 6 mps 748 mmHg 72%
    12:00 +5°C° 0 mm 6 mps 748 mmHg 67%
    13:00 +6°C° 0 mm 5 mps 747 mmHg 70%
    14:00 +5°C° 0 mm 5 mps 747 mmHg 72%
    15:00 +5°C° 0 mm 4 mps 746 mmHg 74%
    16:00 +5°C° 0 mm 5 mps 745 mmHg 74%
    17:00 +3°C° 0 mm 5 mps 744 mmHg 75%
    18:00 +3°C° 0 mm 6 mps 743 mmHg 75%
    19:00 +3°C° 0.4 mm 6 mps 743 mmHg 76%
    20:00 +3°C° 0.4 mm 7 mps 742 mmHg 77%
    21:00 +3°C° 0.4 mm 7 mps 742 mmHg 78%
    22:00 +2°C° 0.4 mm 7 mps 742 mmHg 80%
    23:00 +2°C° 0.4 mm 7 mps 742 mmHg 81%
    Show more